Location: Zapote
(9.9191°N, 84.0597°W)
Time: 12:47:08
(UTC-06:00)

Tiros 1 despin weight - Visible Passes

Search period start: 28 February 2021 00:00
Search period end: 10 March 2021 00:00
Orbit: 593 x 642 km, 48.2° (Epoch: 28 February)

Date Brightness Start Highest point End Pass type
(mag) Time Alt. Az. Time Alt. Az. Time Alt. Az.
04 Mar ? 20:05:55 10° SW 20:06:11 12° SW 20:06:11 12° SW visible
05 Mar ? 18:41:59 10° S 18:45:22 21° SE 18:45:47 21° ESE visible
06 Mar ? 05:04:38 10° N 05:07:42 17° NE 05:10:45 10° E visible
06 Mar ? 18:57:17 10° SSW 19:01:37 59° SE 19:02:36 46° E visible
07 Mar ? 05:19:43 10° NNW 05:24:08 41° NE 05:28:32 10° ESE visible
07 Mar ? 19:13:39 10° SW 19:17:55 48° NW 19:19:28 33° N visible
08 Mar ? 03:58:36 10° NE 03:58:45 10° NE 03:58:54 10° NE visible
08 Mar ? 19:31:09 10° W 19:34:20 19° NW 19:36:21 15° NNW visible
09 Mar ? 04:11:47 11° N 04:15:17 24° NE 04:19:05 10° ESE visible
09 Mar ? 18:04:45 10° SW 18:09:09 90° WNW 18:13:36 10° NE visible
